Dewpoint
49 47 49 49 49 49 49 49 49 49 49 49 49 49 49 49 50 52 53 53 53 52 52 53 53 54 50 25 20 31 53 47 26 22 22 22 21 21 20 18 19 18 17 15 15 15 14
48 48 48 48 48 49 49 48 48 48 48 48 49 49 49 50 51 52 52 51 51 52 52 53 53 54 43 17 22 40 41 34 31 22 22 22 21 23 20 19 18 14 13 12 12 13 14
47 47 48 48 48 48 48 48 48 48 48 48 49 50 50 50 51 51 51 50 50 52 53 53 53 52 45 28 42 43 42 36 34 25 22 24 24 22 21 13 14 13 10 10 11 12 13
46 45 46 47 47 47 48 48 48 48 48 48 48 50 50 50 50 50 50 49 51 54 53 52 52 50 34 41 44 40 40 32 23 24 24 25 23 21 18 17 14 11 12 10 10 10 12
45 45 45 45 46 47 47 47 48 48 48 48 48 49 50 49 49 50 49 49 52 52 52 52 50 44 31 43 42 44 43 33 24 23 24 23 22 19 18 16 15 13 12 10 9 9 10
44 45 44 44 45 46 47 47 47 48 48 48 47 48 49 49 49 50 47 49 50 46 43 49 47 34 32 33 43 39 43 32 23 23 21 23 22 19 17 18 16 15 10 15 9 8 9
44 45 45 45 44 45 46 47 47 48 48 47 47 47 49 49 50 50 43 38 35 28 37 35 31 37 36 37 39 37 37 33 25 22 20 25 20 17 15 17 18 16 12 11 12 10 7
43 44 44 44 44 45 46 47 47 48 48 47 47 48 49 49 50 48 41 39 39 39 35 38 40 40 40 41 35 32 38 25 24 21 24 22 20 21 19 18 17 19 17 15 14 12 8
43 44 44 43 44 45 46 46 47 47 47 47 47 48 49 49 48 42 39 40 42 43 36 30 35 36 35 39 35 35 37 33 27 23 23 20 19 26 23 22 19 18 16 16 14 10 10
42 44 44 44 44 45 45 46 46 46 46 46 48 48 48 48 39 39 37 41 43 43 18 15 22 28 26 29 31 34 37 34 29 24 24 23 25 23 24 25 23 20 21 18 13 12 10
42 43 43 44 44 44 44 44 45 46 46 46 48 49 49 45 37 37 39 42 43 32 -2 18 23 26 28 34 34 32 37 33 31 27 24 21 24 22 26 25 27 23 25 22 19 19 18
42 43 43 43 43 44 44 44 44 45 45 47 48 49 48 42 39 38 42 42 32 17 -19 23 25 25 27 31 34 37 37 37 30 30 26 25 30 28 25 26 29 30 28 29 29 21 17
40 40 41 42 42 43 43 43 44 45 46 47 48 47 44 43 38 42 41 27 17 7 21 21 24 26 27 25 27 33 35 33 26 21 21 26 28 28 29 27 29 28 25 21 18 16 22
39 39 40 41 42 42 43 43 44 45 46 48 48 43 42 44 44 42 28 21 7 19 23 25 26 27 30 24 23 25 35 32 33 34 25 21 20 30 30 26 28 32 31 24 8 16 21
39 39 40 40 42 42 42 43 44 45 46 47 44 39 41 43 45 35 26 15 16 23 25 26 26 25 25 25 26 30 32 33 36 39 29 23 25 32 33 33 32 29 31 33 28 27 22
39 39 40 41 41 41 42 42 43 44 46 45 37 37 39 41 42 32 26 21 23 26 28 28 23 26 25 26 30 32 32 36 38 39 40 29 22 30 32 36 35 35 36 31 30 21 8
38 38 40 40 40 41 41 42 43 44 46 43 35 33 39 41 37 31 21 24 28 29 30 28 25 26 27 29 31 32 32 36 38 38 39 37 27 27 31 33 31 33 32 31 31 23 11
38 38 39 38 39 39 40 42 43 44 46 38 31 26 37 39 29 27 26 30 34 30 31 30 33 32 31 31 30 31 33 34 39 38 36 40 33 27 31 37 37 34 32 33 31 24 25
38 38 38 38 39 39 40 43 43 44 44 34 29 29 35 37 22 22 30 29 32 30 30 31 32 33 32 31 29 32 34 38 37 36 37 40 31 26 28 33 35 33 34 31 29 31 28
38 37 37 38 38 39 40 42 43 43 44 34 28 22 28 33 31 27 27 29 28 31 32 31 33 32 30 29 32 29 29 35 34 35 43 43 39 29 27 30 33 32 35 34 34 29 27
39 38 37 37 38 39 39 41 42 43 42 34 28 24 30 23 26 27 26 28 26 26 30 31 30 30 30 26 28 29 27 30 28 35 38 41 34 36 36 36 36 34 34 37 32 33 28
40 39 38 37 37 39 38 40 42 43 40 32 27 26 29 26 28 25 25 26 27 28 29 29 28 29 31 29 28 28 31 29 27 32 35 37 35 37 33 35 34 33 34 34 34 32 32
41 40 39 37 37 38 38 40 42 43 38 32 33 33 29 27 27 24 26 26 29 29 27 30 30 29 29 30 32 31 32 32 31 30 30 31 36 35 32 32 31 26 29 30 33 32 30
42 41 39 37 36 37 37 38 41 42 39 34 33 31 25 21 26 26 28 27 27 28 27 27 30 32 31 32 35 35 35 34 34 33 32 30 34 36 31 28 21 28 28 29 31 32 31
44 41 40 38 36 36 37 37 39 41 42 35 33 31 27 18 26 24 27 28 26 26 27 29 31 31 33 34 33 31 31 34 36 35 33 32 32 32 29 25 26 24 23 27 27 23 32
44 41 40 40 38 37 37 37 37 40 42 36 33 34 30 23 20 25 26 27 25 26 26 28 30 34 34 32 30 26 28 32 32 35 37 34 35 34 29 23 21 25 25 21 26 18 23
44 43 41 40 40 38 37 36 36 36 40 36 34 34 35 24 26 27 26 27 29 28 24 25 30 28 31 26 26 26 26 28 30 32 34 34 34 31 29 22 26 29 28 24 16 17 28
44 43 43 42 42 40 38 36 36 35 36 38 33 35 32 27 28 28 27 25 28 26 19 23 24 29 27 24 25 25 25 27 26 30 34 33 31 31 30 23 21 30 20 15 24 28 29
44 43 43 43 42 41 39 37 36 35 35 38 32 36 38 35 29 33 33 33 29 29 29 29 26 27 30 23 25 26 25 29 29 23 36 29 30 28 28 30 33 34 28 27 30 29 27
Lifted_Index
15 15 16 16 16 16 16 17 17 17 17 17 17 17 16 16 15 15 14 14 14 14 14 13 12 11 9 7 8 10 10 10 10 8 8 7 7 7 7 6 6 6 6 6 6 6 7
15 15 16 16 16 16 16 17 17 17 17 17 17 16 16 16 15 15 14 14 14 14 13 13 12 10 8 8 9 10 10 10 9 9 8 8 7 7 7 7 6 6 6 6 6 6 6
16 16 16 16 16 17 17 17 17 17 17 17 17 16 16 16 15 15 15 14 13 13 13 13 12 10 8 8 10 10 9 9 9 9 9 8 8 8 7 7 7 6 6 6 5 6 6
16 16 16 16 16 17 17 17 17 17 17 17 16 16 16 16 16 15 14 13 12 11 12 12 11 9 8 9 9 9 9 9 9 9 9 9 8 7 7 7 6 6 5 5 5 6 6
16 16 17 17 17 17 17 17 17 17 17 17 17 16 16 16 16 15 14 12 10 10 10 10 9 8 8 9 9 9 8 8 9 9 9 9 8 7 7 6 6 5 5 5 5 5 6
17 17 17 17 17 17 16 16 16 16 16 17 17 16 16 16 16 15 14 11 10 9 10 9 9 9 9 9 9 9 8 8 8 8 8 8 8 7 7 6 5 5 5 5 5 5 5
17 17 17 17 17 17 16 16 16 16 16 16 16 16 16 16 16 15 13 11 10 10 9 9 9 9 9 9 10 9 9 8 8 7 7 7 7 6 7 6 6 5 5 5 5 5 5
17 17 17 17 17 16 16 16 16 16 16 16 16 16 16 16 15 15 14 12 11 11 9 9 10 10 10 9 9 9 9 8 8 7 7 7 6 7 7 7 6 6 5 4 4 4 4
17 17 17 17 17 16 16 16 16 16 16 16 16 16 16 15 15 15 14 13 13 11 9 9 9 10 10 9 9 9 8 8 8 7 7 6 6 7 7 6 6 5 4 3 3 3 3
17 17 17 17 17 17 17 16 16 16 16 16 16 15 15 15 15 14 14 13 13 10 7 7 9 10 10 10 9 8 8 8 7 7 7 7 7 7 6 6 5 5 3 2 2 2 1
17 17 17 17 17 17 17 17 16 16 16 16 15 15 14 15 14 13 13 13 12 8 5 7 10 11 11 10 9 8 8 7 7 7 7 7 6 6 5 4 4 3 2 1 1 1 0
17 17 17 17 17 17 17 17 16 16 16 15 14 14 14 14 13 13 13 13 10 6 5 7 9 10 10 9 9 9 8 7 7 7 6 6 6 5 4 3 2 2 1 0 0 0 0
18 18 17 17 17 17 17 16 16 16 15 15 14 13 13 13 13 13 13 11 7 5 6 8 9 9 9 9 9 9 8 7 6 6 6 5 5 4 2 1 1 1 0 -0 -0 0 0
18 18 17 17 17 17 16 16 16 15 15 14 13 12 12 12 12 13 12 8 5 6 7 9 9 8 8 9 10 9 7 6 5 5 5 4 3 2 1 -0 -0 0 0 -0 -0 0 0
17 17 17 17 17 16 16 16 16 15 15 14 13 12 12 12 13 12 10 7 6 8 9 9 9 7 7 8 9 8 7 5 4 4 3 3 2 1 -0 -1 -1 -0 0 0 0 0 0
17 17 17 17 17 16 16 16 16 15 15 15 14 12 12 13 13 11 9 7 8 10 11 10 8 7 7 7 8 8 6 5 4 3 2 2 1 1 -0 -1 -1 -0 0 0 0 0 0
17 17 17 17 17 17 17 16 16 15 15 15 14 12 12 12 12 10 8 8 10 12 12 11 9 8 8 8 8 7 6 5 4 3 1 1 0 0 -0 -0 -0 -0 0 1 1 1 1
17 17 17 17 17 17 17 16 16 16 16 15 13 12 12 12 11 9 9 10 11 12 12 11 10 10 10 9 8 7 6 5 4 3 1 0 0 0 0 -0 0 0 0 1 1 1 1
17 17 17 17 17 17 17 16 16 15 16 15 13 12 12 12 10 10 10 11 11 12 12 11 11 11 11 10 8 7 7 5 4 3 1 1 0 0 0 0 0 0 1 1 1 1 1
16 16 17 17 17 17 17 16 16 15 16 15 13 12 12 12 11 11 11 11 11 11 12 12 11 11 11 10 8 8 7 6 5 3 2 1 0 0 0 0 0 1 1 1 1 1 1
16 16 16 17 17 17 17 16 15 15 16 15 13 12 12 12 12 12 12 11 11 11 12 12 11 11 10 9 9 8 7 7 5 4 2 1 0 0 0 0 1 1 1 1 1 1 1
15 15 16 16 17 17 16 16 15 15 16 15 14 13 13 13 12 12 12 12 12 12 12 12 11 11 10 9 9 8 8 7 6 4 3 2 1 1 1 1 1 1 1 1 1 1 1
14 15 15 16 16 16 16 16 15 15 16 15 15 14 14 13 12 12 12 13 13 13 13 12 12 11 9 9 9 9 8 7 6 5 3 2 1 1 1 1 1 1 1 1 1 1 2
14 14 15 16 16 16 16 16 16 15 16 16 16 15 13 12 12 12 13 14 14 14 13 12 11 10 9 9 9 8 6 5 4 4 3 2 2 1 1 1 1 1 1 1 1 2 2
13 14 14 15 16 16 16 16 16 15 16 16 16 15 13 12 12 13 14 14 14 14 13 12 11 10 9 9 8 6 4 3 2 2 2 2 2 1 1 1 1 1 1 2 2 2 3
13 13 14 14 15 16 16 16 16 16 16 16 16 15 14 13 13 13 14 14 14 13 12 11 11 10 9 9 7 5 3 2 1 0 1 1 2 1 1 1 1 1 2 2 2 2 3
13 13 14 14 15 15 16 16 16 16 16 16 15 15 15 14 14 14 14 13 13 12 11 11 11 10 9 9 7 5 3 2 1 1 0 1 1 1 1 0 1 1 2 2 2 3 3
12 13 13 14 14 15 15 15 16 16 15 15 15 15 15 14 14 15 14 13 13 12 12 11 11 10 9 9 7 6 4 3 2 2 1 1 1 1 1 1 1 1 2 2 3 4 4
12 12 13 13 14 14 15 15 15 16 15 15 16 15 15 14 14 15 14 14 13 12 12 11 10 10 10 9 8 7 6 5 3 2 1 1 1 1 1 1 1 1 2 2 3 4 5